Regional Weather Roundup
Issued by NWS

Home | Current Version | Previous Version | Graphics & Text | Print | Product List | Glossary Off
Versions: 1 2 3 4 5 6 7 8 9 10 11 12 13 14 15 16 17 18 19 20 21 22 23 24 25 26 27 28 29 30 31 32 33 34 35 36 37 38 39 40 41 42 43 44 45 46 47 48 49 50

000
ASUS44 KMEG 301610
RWRTN
TENNESSEE HOURLY STATE WEATHER ROUNDUP
NATIONAL WEATHER SERVICE MEMPHIS TN
1100 AM CDT SAT AUG 30 2014

TNZ002-004-019-021-049-052-054-088>092-301700-
WEST TENNESSEE

CITY           SKY/WX    TMP DP  RH WIND       PRES   REMARKS
MEMPHIS INTL   CLOUDY    79  73  82 CALM      30.05S
NWS MEMPHIS      N/A     78 N/A N/A MISG        N/A
JACKSON        CLOUDY    77  72  84 S3        30.07R
DYERSBURG      CLOUDY    81  68  65 SW5       30.05F
UNION CITY     MOSUNNY   79  73  83 SW8       30.04S
PARIS          MOSUNNY   73  72  94 SW7       30.08R
HUNTINGDON     CLOUDY    76  72  87 SW5       30.07S
LEXINGTON      PTSUNNY   73  72  94 CALM      30.07S
SAVANNAH       PTSUNNY   75  75 100 CALM      30.08S
$$

TNZ008-025-027-028-033-062-065-066-301700-
NORTH MIDDLE TENNESSEE

CITY           SKY/WX    TMP DP  RH WIND       PRES   REMARKS
NASHVILLE      CLOUDY    81  68  64 VRB3      30.10S
DICKSON        CLOUDY    75  70  83 SW6       30.09S
PORTLAND       CLOUDY    81  68  65 S7        30.09R
CLARKSVILLE    CLOUDY    80  70  71 SW8       30.07R
LEBANON        CLOUDY    81  67  62 S6        30.09R
SMYRNA         CLOUDY    80  67  64 SW6       30.11S
COOKEVILLE     SUNNY     82  70  65 S7        30.14R
LIVINGSTON     PTSUNNY   82  65  56 SW5       30.15R
GALLATIN       CLOUDY    80  69  69 S5        30.11R
CROSSVILLE     PTSUNNY   80  64  58 S3        30.20R
$$

TNZ061-075-076-078-094-096-097-301700-
SOUTH MIDDLE TENNESSEE

CITY           SKY/WX    TMP DP  RH WIND       PRES   REMARKS
LEWISBURG      CLOUDY    80  67  64 SE6       30.10S
FAYETTEVILLE   MOSUNNY   79  68  69 S10       30.13R
TULLAHOMA      SUNNY     81  68  65 S6        30.15R
WINCHESTER     SUNNY     81  68  65 VRB3      30.14R
MCMINNVILLE    MOSUNNY   84  72  65 S3        30.14R
COLUMBIA         N/A     81  72  74 CALM      30.09S
SHELBYVILLE    SUNNY     81  72  74 S6        30.13S
$$

TNZ017-018-042-046-047-301700-
NORTHEAST TENNESSEE

CITY           SKY/WX    TMP DP  RH WIND       PRES   REMARKS
TRI CITIES     SUNNY     85  63  47 VRB5      30.20F
ELIZABETHTON   SUNNY     84  64  51 E6        30.20F
$$

TNZ012-013-036-069-073-074-301700-
CENTRAL EAST TENNESSEE

CITY           SKY/WX    TMP DP  RH WIND       PRES   REMARKS
KNOXVILLE      PTSUNNY   86  67  52 CALM      30.14F
OAK RIDGE      MOSUNNY   85  67  54 CALM      30.17S
GATLINBURG     MOSUNNY   90  63  40 CALM      30.14F HX  90
MORRISTOWN     SUNNY     86  64  48 SE3       30.18S
$$

TNZ083-085-099-301700-
SOUTHEAST TENNESSEE

CITY           SKY/WX    TMP DP  RH WIND       PRES   REMARKS
CHATTANOOGA    CLOUDY    83  67  58 S8        30.15S
$$

SKY/WX REPORTED AS FAIR MEANS FEW OR NO CLOUDS BELOW
12 THOUSAND FEET.



USA.gov is the U.S. government's official web portal to all federal, state and local government web resources and services.